This is the latest recevied weather packets stored in our database for station/object DB0OHA-13. If no packets are shown the sender has not sent any weather packets the latest 10 day(s).
| Time | Temp. | Humidity | Pressure | Rain* | Wind** | Luminosity | Snow |
|---|---|---|---|---|---|---|---|
| 1777858874 | 12.78° C | 1% | 1012.2 hPa | 0 mm | - | 0 W/m² | - |
| 1777858274 | 12.78° C | 5% | 1012.1 hPa | 0 mm | - | 0 W/m² | - |
| 1777857674 | 13.33° C | 13% | 1011.9 hPa | 0 mm | - | 0 W/m² | - |
| 1777857074 | 13.33° C | 19% | 1012.2 hPa | 0 mm | - | 0 W/m² | - |
| 1777856473 | 13.33° C | 15% | 1012.1 hPa | 0 mm | - | 0 W/m² | - |
| 1777855874 | 13.89° C | 31% | 1012.1 hPa | 0 mm | - | 0 W/m² | - |
| 1777855273 | 13.89° C | 45% | 1012.1 hPa | 0 mm | - | 0 W/m² | - |
| 1777854674 | 15° C | 58% | 1012.1 hPa | 0 mm | - | 0 W/m² | - |
| 1777854074 | 15° C | 59% | 1012.1 hPa | 0 mm | - | 0 W/m² | - |
| 1777853474 | 15.56° C | 59% | 1012.3 hPa | 0 mm | - | 0 W/m² | - |
| 1777852873 | 15.56° C | 61% | 1012.3 hPa | 0 mm | - | 0 W/m² | - |
| 1777852273 | 15.56° C | 59% | 1012.3 hPa | 0 mm | - | 0 W/m² | - |
| 1777851673 | 15.56° C | 56% | 1012.2 hPa | 0 mm | - | 0 W/m² | - |
| 1777851073 | 15.56° C | 62% | 1012.3 hPa | 0 mm | - | 0 W/m² | - |
| 1777850473 | 15.56° C | 60% | 1012.2 hPa | 0 mm | - | 0 W/m² | - |
| 1777849873 | 16.11° C | 63% | 1012.4 hPa | 0 mm | - | 0 W/m² | - |
| 1777849273 | 16.11° C | 62% | 1012.3 hPa | 0 mm | - | 0 W/m² | - |
| 1777848073 | 16.11° C | 61% | 1012.4 hPa | 0 mm | - | 0 W/m² | - |
| 1777847473 | 16.11° C | 61% | 1012.5 hPa | 0 mm | - | 0 W/m² | - |
| 1777846872 | 16.67° C | 62% | 1012.6 hPa | 0 mm | - | 0 W/m² | - |
| 1777846272 | 16.67° C | 61% | 1012.7 hPa | 0 mm | - | 0 W/m² | - |
| 1777845673 | 16.67° C | 59% | 1012.7 hPa | 0 mm | - | 0 W/m² | - |
| 1777845072 | 16.67° C | 58% | 1012.5 hPa | 0 mm | - | 0 W/m² | - |
| 1777843872 | 17.22° C | 56% | 1012.6 hPa | 0 mm | - | 0 W/m² | - |
| 1777842672 | 17.78° C | 54% | 1012.5 hPa | 0 mm | - | 0 W/m² | - |
* Rain latest hour (hover to see other rain measurements)
** Current wind speed in m/s (hover to see current wind gust speed)